SKY MUSTER 1 (NBN1A)

Last updated on Sat Jul 18 2026 00:03:03 GMT+0000 (Coordinated Universal Time)

1 40940U 15054A 26198.65208051 .00000000 00000+0 00000+0 0 9993 2 40940 0.0136 33.7432 0001638 84.1459 192.5772 1.00269954 39562
UTC large
Height (km)
Speed (km/s)
/
Latitude / Longitude
Inclination (degrees)
Orbital Period (minutes)
Azimuth
Elevation
Range (km)
Doppler Factor

Next 0 passes for location: London (51.5072 / 0.1276)

No passes found over London.
SKY MUSTER 1 (NBN1A)